FW0827 Weather Reports


time (UTC)temp
C
wind
direction
speed
KPH
gust
KPH
rain 1hr
cm
rain 24hr
cm
rain mn
cm
humidity
%
barometer
mb
20260505065726 13 263 0.0 0.0 0.00 0.00 0.00 78 1027.1
20260505065704 14 263 0.0 0.0 0.00 0.00 0.00 78 1010.5
20260505065223 14 263 0.0 0.0 0.00 0.00 0.00 77 1027.1
20260505065203 14 263 0.0 0.0 0.00 0.00 0.00 77 1010.4
20260505064720 13 263 0.0 0.0 0.00 0.00 0.00 77 1027.1
20260505064704 13 263 0.0 0.0 0.00 0.00 0.00 78 1010.4
20260505064218 13 263 0.0 0.0 0.00 0.00 0.00 78 1027.2
20260505064204 13 263 0.0 0.0 0.00 0.00 0.00 78 1010.5
20260505063715 13 263 0.0 0.0 0.00 0.00 0.00 78 1027.1
20260505063703 13 263 0.0 0.0 0.00 0.00 0.00 78 1010.3
20260505063211 13 263 0.0 0.0 0.00 0.00 0.00 77 1027.1
20260505063203 13 263 0.0 0.0 0.00 0.00 0.00 77 1010.3
20260505062707 13 263 0.0 0.0 0.00 0.00 0.00 77 1027.1
20260505062205 13 263 0.0 0.0 0.00 0.00 0.00 77 1027.1
20260505062203 13 263 0.0 0.0 0.00 0.00 0.00 78 1010.3
20260505061704 13 263 0.0 0.0 0.00 0.00 0.00 78 1010.5
20260505061702 13 263 0.0 0.0 0.00 0.00 0.00 78 1027.2
20260505061204 13 263 0.0 0.0 0.00 0.00 0.00 78 1010.3
20260505061200 13 263 0.0 0.0 0.00 0.00 0.00 78 1026.9
20260505060704 13 263 0.0 0.0 0.00 0.00 0.00 78 1010.4
20260505060657 13 263 0.0 0.0 0.00 0.00 0.00 78 1027.1
20260505060204 13 263 0.0 0.0 0.00 0.00 0.00 78 1010.3
20260505060154 13 263 0.0 0.0 0.00 0.00 0.00 78 1026.9
20260505055704 13 263 0.0 0.0 0.00 0.00 0.00 77 1010.3
20260505055649 13 263 0.0 0.0 0.00 0.00 0.00 77 1026.8
20260505055146 13 263 0.0 0.0 0.00 0.00 0.00 78 1026.8
20260505054704 13 263 0.0 0.0 0.00 0.00 0.00 77 1010.2
20260505054643 13 263 0.0 0.0 0.00 0.00 0.00 77 1026.9
20260505054203 13 263 0.0 0.0 0.00 0.00 0.00 77 1010.3
20260505054141 13 263 0.0 0.0 0.00 0.00 0.00 77 1027.0
20260505053639 13 263 0.0 0.0 0.00 0.00 0.00 77 1027.1
20260505053203 13 263 0.0 0.0 0.00 0.00 0.00 76 1010.3
20260505053135 13 263 0.0 0.0 0.00 0.00 0.00 76 1026.9
20260505052703 13 263 0.0 0.0 0.00 0.00 0.00 76 1010.4
20260505052632 13 263 0.0 0.0 0.00 0.00 0.00 76 1027.1
20260505052204 13 263 0.0 0.0 0.00 0.00 0.00 76 1010.3
20260505052130 13 263 0.0 0.0 0.00 0.00 0.00 76 1027.1
20260505051704 13 263 0.0 0.0 0.00 0.00 0.00 76 1010.4
20260505051626 13 263 0.0 0.0 0.00 0.00 0.00 76 1027.1
20260505051203 13 263 0.0 1.6 0.00 0.00 0.00 75 1010.3
20260505051125 13 263 0.0 3.2 0.00 0.00 0.00 75 1026.9
20260505050703 13 263 0.0 0.0 0.00 0.00 0.00 77 1010.3
20260505050622 13 263 0.0 0.0 0.00 0.00 0.00 77 1027.0
20260505050204 13 263 0.0 0.0 0.00 0.00 0.00 76 1010.1
20260505050120 13 263 0.0 0.0 0.00 0.00 0.00 76 1026.8
20260505041704 14 263 0.0 0.0 0.00 0.00 0.00 72 1010.4
20260505041550 14 263 0.0 0.0 0.00 0.00 0.00 72 1027.1
20260505041205 13 263 0.0 0.0 0.00 0.00 0.00 71 1010.3
20260505041047 13 263 0.0 0.0 0.00 0.00 0.00 71 1027.0
20260505040544 14 263 0.0 0.0 0.00 0.00 0.00 71 1027.1
20260505040204 13 305 0.0 0.0 0.00 0.00 0.00 71 1010.1
20260505040041 13 305 0.0 0.0 0.00 0.00 0.00 71 1026.9
20260505035704 13 305 0.0 0.0 0.00 0.00 0.00 71 1010.2
20260505035537 13 305 0.0 0.0 0.00 0.00 0.00 71 1026.9
20260505035205 13 305 0.0 0.0 0.00 0.00 0.00 71 1010.0
20260505035034 13 305 0.0 0.0 0.00 0.00 0.00 71 1026.6
20260505034703 13 305 0.0 0.0 0.00 0.00 0.00 70 1009.8
20260505034530 13 305 0.0 0.0 0.00 0.00 0.00 70 1026.5
20260505034203 13 307 0.0 0.0 0.00 0.00 0.00 71 1009.9
20260505034028 13 307 0.0 0.0 0.00 0.00 0.00 71 1026.5
20260505033525 13 307 0.0 0.0 0.00 0.00 0.00 69 1026.7
20260505033205 13 307 0.0 0.0 0.00 0.00 0.00 69 1010.0
20260505033023 13 307 0.0 0.0 0.00 0.00 0.00 70 1026.7
20260505032704 13 307 0.0 0.0 0.00 0.00 0.00 68 1010.1
20260505032520 13 307 0.0 0.0 0.00 0.00 0.00 67 1027.0
20260505032204 14 307 0.0 0.0 0.00 0.00 0.00 67 1010.2
20260505032017 14 307 0.0 0.0 0.00 0.00 0.00 66 1026.9
20260505031705 14 307 0.0 0.0 0.00 0.00 0.00 65 1010.2
20260505031514 14 307 0.0 0.0 0.00 0.00 0.00 66 1026.8
20260505031203 14 307 0.0 0.0 0.00 0.00 0.00 66 1010.2
20260505031010 14 307 0.0 0.0 0.00 0.00 0.00 65 1026.8
20260505030705 13 307 0.0 0.0 0.00 0.00 0.00 67 1010.0
20260505030507 13 307 0.0 0.0 0.00 0.00 0.00 68 1026.8
20260505030204 13 307 0.0 0.0 0.00 0.00 0.00 69 1010.0
20260505030003 13 307 0.0 0.0 0.00 0.00 0.00 69 1026.8
20260505025704 13 307 0.0 0.0 0.00 0.00 0.00 68 1010.1
20260505025459 13 307 0.0 0.0 0.00 0.00 0.00 68 1026.8
20260505024959 13 307 0.0 0.0 0.00 0.00 0.00 68 1026.8
20260505024704 13 307 0.0 0.0 0.00 0.00 0.00 68 1010.1
20260505024454 13 307 0.0 0.0 0.00 0.00 0.00 68 1026.7
20260505024204 13 307 0.0 0.0 0.00 0.00 0.00 69 1010.1
20260505023952 13 307 0.0 0.0 0.00 0.00 0.00 68 1026.9
20260505023705 13 307 0.0 0.0 0.00 0.00 0.00 69 1009.9
20260505023449 13 307 0.0 0.0 0.00 0.00 0.00 69 1026.5
20260505023205 13 307 0.0 0.0 0.00 0.00 0.00 69 1010.2
20260505022946 13 307 0.0 0.0 0.00 0.00 0.00 68 1026.9
20260505022704 13 307 0.0 0.0 0.00 0.00 0.00 68 1010.3
20260505022444 13 307 0.0 0.0 0.00 0.00 0.00 68 1027.1
20260505021941 13 307 0.0 0.0 0.00 0.00 0.00 68 1027.0
20260505021704 14 307 0.0 0.0 0.00 0.00 0.00 67 1010.4
20260505021437 14 307 0.0 0.0 0.00 0.00 0.00 67 1027.1
20260505021204 14 307 0.0 0.0 0.00 0.00 0.00 66 1010.4
20260505020933 15 307 0.0 0.0 0.00 0.00 0.00 65 1027.1
20260505020703 15 307 0.0 0.0 0.00 0.00 0.00 65 1010.5
20260505020428 15 307 0.0 0.0 0.00 0.00 0.00 65 1027.0
20260505015925 15 307 0.0 0.0 0.00 0.00 0.00 65 1027.1
20260505015704 15 307 0.0 0.0 0.00 0.00 0.00 64 1010.3
20260505015423 15 307 0.0 0.0 0.00 0.00 0.00 65 1027.0
20260505015205 15 307 0.0 0.0 0.00 0.00 0.00 65 1010.3
20260505014920 14 307 0.0 0.0 0.00 0.00 0.00 65 1027.2
20260505014704 14 307 0.0 0.0 0.00 0.00 0.00 65 1010.2
20260505014416 14 307 0.0 0.0 0.00 0.00 0.00 65 1026.9
20260505014203 14 307 0.0 0.0 0.00 0.00 0.00 64 1010.2
20260505013914 15 307 0.0 0.0 0.00 0.00 0.00 63 1026.9
20260505013703 15 307 0.0 0.0 0.00 0.00 0.00 63 1010.3
20260505013410 15 307 0.0 0.0 0.00 0.00 0.00 63 1027.1
20260505013204 15 307 0.0 0.0 0.00 0.00 0.00 62 1010.2
20260505012909 15 307 0.0 0.0 0.00 0.00 0.00 62 1026.8
20260505012704 15 307 0.0 0.0 0.00 0.00 0.00 62 1010.3
20260505012406 15 307 0.0 0.0 0.00 0.00 0.00 62 1026.9
20260505012204 15 307 0.0 0.0 0.00 0.00 0.00 63 1010.1
20260505011902 15 307 0.0 0.0 0.00 0.00 0.00 64 1026.8
20260505011704 15 307 0.0 0.0 0.00 0.00 0.00 64 1010.2
20260505011359 15 307 0.0 0.0 0.00 0.00 0.00 64 1026.9
20260505011204 15 307 0.0 0.0 0.00 0.00 0.00 62 1010.3
20260505010855 15 307 0.0 0.0 0.00 0.00 0.00 62 1026.6
20260505010351 15 307 0.0 0.0 0.00 0.00 0.00 61 1026.8
20260505010204 16 307 0.0 0.0 0.00 0.00 0.00 60 1010.2
20260505005847 16 307 0.0 0.0 0.00 0.00 0.00 60 1026.6
20260505005702 16 307 0.0 0.0 0.00 0.00 0.00 60 1010.1
20260505005344 15 307 0.0 0.0 0.00 0.00 0.00 60 1026.5
20260505004842 15 307 0.0 0.0 0.00 0.00 0.00 61 1026.7
20260505004704 15 307 0.0 0.0 0.00 0.00 0.00 62 1009.9
20260505004338 15 307 0.0 0.0 0.00 0.00 0.00 62 1026.3
20260505004203 15 307 0.0 0.0 0.00 0.00 0.00 61 1009.7
20260505003836 15 307 0.0 0.0 0.00 0.00 0.00 61 1026.6
20260505003704 15 307 0.0 0.0 0.00 0.00 0.00 60 1009.6
20260505003333 15 307 0.0 0.0 0.00 0.00 0.00 60 1026.5
20260505003203 15 307 0.0 0.0 0.00 0.00 0.00 59 1009.7
20260505002828 16 307 0.0 0.0 0.00 0.00 0.00 59 1026.3
20260505002703 16 307 0.0 0.0 0.00 0.00 0.00 60 1009.7
20260505002326 16 307 0.0 0.0 0.00 0.00 0.00 59 1026.2
20260505002204 16 307 0.0 0.0 0.00 0.00 0.00 59 1009.8
20260505001824 16 307 0.0 0.0 0.00 0.00 0.00 58 1026.5
20260505001703 16 307 0.0 0.0 0.00 0.00 0.00 58 1009.6
20260505001320 16 285 0.0 0.0 0.00 0.00 0.00 58 1026.4
20260505001204 16 263 0.0 0.0 0.00 0.00 0.00 58 1009.6
20260505000818 17 260 0.0 0.0 0.00 0.00 0.00 57 1026.2
20260505000703 17 260 0.0 0.0 0.00 0.00 0.00 57 1009.6
20260505000316 17 260 0.0 0.0 0.00 0.00 0.00 56 1026.1
20260504235812 17 260 0.0 0.0 0.00 0.00 0.00 55 1026.0
20260504235703 18 260 0.0 0.0 0.00 0.00 0.00 55 1009.5
20260504235309 18 260 0.0 0.0 0.00 0.00 0.00 53 1026.2
20260504234806 18 276 0.0 0.0 0.00 0.00 0.00 52 1026.1
20260504234703 18 274 0.0 1.6 0.00 0.00 0.00 52 1009.5
20260504234304 18 250 0.0 3.2 0.00 0.00 0.00 50 1026.4
20260504234205 18 249 1.6 4.8 0.00 0.00 0.00 51 1009.4
20260504233800 19 277 0.0 4.8 0.00 0.00 0.00 51 1026.2
20260504233255 19 141 0.0 0.0 0.00 0.00 0.00 49 1026.1
20260504233204 19 182 0.0 4.8 0.00 0.00 0.00 50 1009.4
20260504232752 19 221 1.6 4.8 0.00 0.00 0.00 48 1026.1
20260504232703 19 254 0.0 1.6 0.00 0.00 0.00 49 1009.5
20260504232249 19 253 0.0 3.2 0.00 0.00 0.00 49 1026.1
20260504232203 19 251 0.0 8.0 0.00 0.00 0.00 48 1009.5
20260504231746 19 184 1.6 8.0 0.00 0.00 0.00 50 1025.9
20260504231243 20 271 0.0 4.8 0.00 0.00 0.00 49 1026.0
20260504231203 19 243 1.6 4.8 0.00 0.00 0.00 49 1009.3
20260504230739 20 270 0.0 3.2 0.00 0.00 0.00 50 1026.0
20260504230704 20 252 0.0 4.8 0.00 0.00 0.00 49 1009.4
20260504230237 20 268 0.0 3.2 0.00 0.00 0.00 49 1025.9
20260504230204 20 269 0.0 11.3 0.00 0.00 0.00 48 1009.3
20260504225736 20 234 3.2 11.3 0.00 0.00 0.00 47 1026.1
20260504225704 20 247 1.6 11.3 0.00 0.00 0.00 48 1009.4
20260504225231 20 249 0.0 3.2 0.00 0.00 0.00 47 1026.1
20260504225203 20 236 1.6 11.3 0.00 0.00 0.00 46 1009.5
20260504224728 20 212 4.8 8.0 0.00 0.00 0.00 46 1026.1
20260504224704 20 249 1.6 8.0 0.00 0.00 0.00 46 1009.3
20260504224220 20 238 0.0 3.2 0.00 0.00 0.00 47 1026.2
20260504224203 20 250 1.6 4.8 0.00 0.00 0.00 46 1009.5
20260504223716 20 247 0.0 0.0 0.00 0.00 0.00 47 1026.1
20260504223703 20 257 0.0 8.0 0.00 0.00 0.00 48 1009.4
20260504223212 20 263 1.6 4.8 0.00 0.00 0.00 46 1026.3
20260504223204 20 256 0.0 11.3 0.00 0.00 0.00 46 1009.5
20260504222709 20 227 3.2 11.3 0.00 0.00 0.00 46 1026.0
20260504222206 20 265 0.0 11.3 0.00 0.00 0.00 46 1026.2
20260504221705 20 206 1.6 11.3 0.00 0.00 0.00 45 1009.5
20260504221703 20 205 6.4 11.3 0.00 0.00 0.00 45 1026.2
20260504221203 20 243 3.2 12.9 0.00 0.00 0.00 45 1009.5
20260504221201 20 220 3.2 11.3 0.00 0.00 0.00 44 1026.1
20260504220704 20 225 3.2 8.0 0.00 0.00 0.00 45 1009.4
20260504220656 20 228 4.8 8.0 0.00 0.00 0.00 45 1026.2
20260504220203 20 241 0.0 4.8 0.00 0.00 0.00 45 1009.4
20260504220155 20 251 0.0 3.2 0.00 0.00 0.00 45 1026.2
20260504215651 20 250 0.0 4.8 0.00 0.00 0.00 45 1026.3
20260504215205 20 240 4.8 12.9 0.00 0.00 0.00 45 1009.6
20260504215148 20 257 3.2 11.3 0.00 0.00 0.00 46 1026.4
20260504214644 20 153 9.7 11.3 0.00 0.00 0.00 45 1026.3
20260504214206 20 210 1.6 11.3 0.00 0.00 0.00 47 1009.5
20260504214140 20 224 0.0 4.8 0.00 0.00 0.00 46 1026.2
20260504213637 20 222 8.0 11.3 0.00 0.00 0.00 44 1026.3
20260504213204 20 200 3.2 4.8 0.00 0.00 0.00 45 1009.7
20260504213134 20 231 1.6 4.8 0.00 0.00 0.00 46 1026.4
20260504212630 20 209 1.6 4.8 0.00 0.00 0.00 45 1026.4
20260504212203 20 197 1.6 11.3 0.00 0.00 0.00 45 1009.7
20260504212127 20 195 0.0 4.8 0.00 0.00 0.00 45 1026.4
20260504211704 20 192 4.8 12.9 0.00 0.00 0.00 46 1009.7
20260504211625 20 188 8.0 11.3 0.00 0.00 0.00 46 1026.3
20260504211203 20 191 4.8 12.9 0.00 0.00 0.00 46 1009.5
20260504211121 20 205 4.8 8.0 0.00 0.00 0.00 46 1026.1
20260504210703 21 207 1.6 14.5 0.00 0.00 0.00 46 1009.7
20260504210619 21 209 0.0 11.3 0.00 0.00 0.00 46 1026.4
20260504210203 20 262 0.0 12.9 0.00 0.00 0.00 47 1009.4
20260504210115 20 262 0.0 3.2 0.00 0.00 0.00 48 1026.1
20260504205613 20 197 1.6 4.8 0.00 0.00 0.00 46 1026.3
20260504205110 21 261 0.0 0.0 0.00 0.00 0.00 46 1026.4
20260504204703 21 245 1.6 8.0 0.00 0.00 0.00 46 1009.8
20260504204608 21 251 0.0 8.0 0.00 0.00 0.00 47 1026.4
20260504204204 20 248 0.0 11.3 0.00 0.00 0.00 47 1009.6
20260504204106 20 248 0.0 0.0 0.00 0.00 0.00 48 1026.3
20260504203704 21 250 0.0 12.9 0.00 0.00 0.00 46 1009.6
20260504203604 21 270 0.0 0.0 0.00 0.00 0.00 46 1026.2
20260504203203 21 197 1.6 12.9 0.00 0.00 0.00 46 1009.7
20260504203101 21 222 1.6 3.2 0.00 0.00 0.00 47 1026.3
20260504202703 20 235 3.2 11.3 0.00 0.00 0.00 48 1009.8
20260504202551 20 223 1.6 4.8 0.00 0.00 0.00 48 1026.5
20260504202203 20 281 3.2 22.5 0.00 0.00 0.00 48 1009.8
20260504202048 20 290 1.6 12.9 0.00 0.00 0.00 49 1026.4
20260504201705 21 216 3.2 11.3 0.00 0.00 0.00 46 1009.8
20260504201545 21 218 4.8 4.8 0.00 0.00 0.00 46 1026.5
20260504201204 21 243 1.6 14.5 0.00 0.00 0.00 46 1010.0
20260504201043 21 250 0.0 11.3 0.00 0.00 0.00 46 1026.6
20260504200703 21 208 11.3 14.5 0.00 0.00 0.00 46 1009.8
20260504200539 21 204 12.9 16.1 0.00 0.00 0.00 46 1026.5
20260504200204 21 191 4.8 14.5 0.00 0.00 0.00 45 1009.9
20260504200036 21 203 3.2 16.1 0.00 0.00 0.00 45 1026.6
20260504195704 21 213 4.8 12.9 0.00 0.00 0.00 44 1010.1
20260504195532 21 227 4.8 8.0 0.00 0.00 0.00 44 1026.8
20260504195205 21 272 0.0 11.3 0.00 0.00 0.00 46 1010.0
20260504195029 21 273 0.0 3.2 0.00 0.00 0.00 46 1026.6
20260504194704 21 230 4.8 12.9 0.00 0.00 0.00 45 1010.2
20260504194526 22 190 9.7 12.9 0.00 0.00 0.00 44 1026.7
20260504194204 22 247 1.6 11.3 0.00 0.00 0.00 47 1010.2
20260504194021 22 256 0.0 3.2 0.00 0.00 0.00 46 1026.8
20260504193704 22 269 0.0 11.3 0.00 0.00 0.00 45 1010.2
20260504193518 22 250 0.0 0.0 0.00 0.00 0.00 45 1026.6
20260504193203 21 230 6.4 11.3 0.00 0.00 0.00 46 1010.2
20260504193017 22 272 4.8 8.0 0.00 0.00 0.00 47 1026.7
20260504192704 21 211 1.6 12.9 0.00 0.00 0.00 45 1010.3
20260504192514 21 241 0.0 8.0 0.00 0.00 0.00 45 1026.9
20260504192204 21 239 1.6 12.9 0.00 0.00 0.00 45 1010.3
20260504192013 21 226 1.6 3.2 0.00 0.00 0.00 44 1027.1
20260504191704 22 212 4.8 12.9 0.00 0.00 0.00 43 1010.5
20260504191510 22 255 6.4 12.9 0.00 0.00 0.00 42 1027.0
20260504191204 21 235 3.2 12.9 0.00 0.00 0.00 44 1010.4
20260504191006 21 211 3.2 12.9 0.00 0.00 0.00 46 1027.2
20260504190705 22 224 4.8 11.3 0.00 0.00 0.00 45 1010.5
20260504190501 22 211 6.4 11.3 0.00 0.00 0.00 43 1027.2
20260504190203 22 232 3.2 8.0 0.00 0.00 0.00 45 1010.4
20260504185958 22 194 6.4 8.0 0.00 0.00 0.00 44 1027.4
20260504185455 21 270 0.0 8.0 0.00 0.00 0.00 46 1027.3
20260504185204 21 225 8.0 12.9 0.00 0.00 0.00 43 1010.7
20260504184951 21 191 8.0 12.9 0.00 0.00 0.00 42 1027.4
20260504184705 21 258 3.2 11.3 0.00 0.00 0.00 45 1010.7
20260504184447 21 217 8.0 11.3 0.00 0.00 0.00 45 1027.4
20260504184204 21 261 1.6 19.3 0.00 0.00 0.00 44 1010.6
20260504183942 21 221 3.2 4.8 0.00 0.00 0.00 44 1027.3
20260504183705 22 218 3.2 14.5 0.00 0.00 0.00 42 1010.9
20260504183440 22 213 6.4 12.9 0.00 0.00 0.00 45 1027.7
20260504183204 22 243 1.6 11.3 0.00 0.00 0.00 44 1010.9
20260504182938 22 205 4.8 8.0 0.00 0.00 0.00 42 1027.6
20260504182704 21 229 1.6 8.0 0.00 0.00 0.00 41 1011.0
20260504182434 21 274 0.0 0.0 0.00 0.00 0.00 43 1027.5
20260504182205 21 234 3.2 11.3 0.00 0.00 0.00 43 1011.0
20260504181932 21 254 4.8 8.0 0.00 0.00 0.00 43 1027.7
20260504181704 21 236 3.2 12.9 0.00 0.00 0.00 45 1011.0
20260504181428 21 233 3.2 8.0 0.00 0.00 0.00 43 1027.8
20260504181204 21 225 8.0 12.9 0.00 0.00 0.00 43 1011.2
20260504180927 21 222 4.8 8.0 0.00 0.00 0.00 45 1028.0
20260504180704 21 256 4.8 12.9 0.00 0.00 0.00 44 1011.2
20260504180426 20 230 0.0 11.3 0.00 0.00 0.00 45 1027.9
20260504180203 21 205 4.8 12.9 0.00 0.00 0.00 44 1011.4
20260504175924 21 212 8.0 12.9 0.00 0.00 0.00 43 1028.2
20260504175704 21 261 0.0 8.0 0.00 0.00 0.00 47 1011.5
20260504175421 21 263 0.0 0.0 0.00 0.00 0.00 47 1028.3
20260504175204 21 230 1.6 11.3 0.00 0.00 0.00 46 1011.7
20260504174918 21 288 6.4 11.3 0.00 0.00 0.00 46 1028.2
20260504174705 21 211 3.2 11.3 0.00 0.00 0.00 44 1011.5
20260504174415 21 275 1.6 8.0 0.00 0.00 0.00 45 1028.3
20260504174204 21 249 1.6 11.3 0.00 0.00 0.00 48 1011.6
20260504173913 21 264 1.6 11.3 0.00 0.00 0.00 43 1028.3
20260504173409 21 226 8.0 11.3 0.00 0.00 0.00 46 1028.5
20260504173204 21 219 3.2 12.9 0.00 0.00 0.00 44 1011.8
20260504172907 21 221 1.6 12.9 0.00 0.00 0.00 45 1028.7
20260504172705 21 197 4.8 11.3 0.00 0.00 0.00 46 1011.8
20260504172403 21 217 3.2 11.3 0.00 0.00 0.00 44 1028.5
20260504172204 21 255 1.6 12.9 0.00 0.00 0.00 46 1012.1
20260504171859 21 256 4.8 12.9 0.00 0.00 0.00 46 1028.7
20260504171703 21 317 0.0 1.6 0.00 0.00 0.00 48 1011.9
20260504171356 20 229 0.0 3.2 0.00 0.00 0.00 45 1028.8
20260504171203 20 238 0.0 12.9 0.00 0.00 0.00 45 1012.1
20260504170853 20 204 4.8 8.0 0.00 0.00 0.00 47 1028.7
20260504170705 20 256 1.6 14.5 0.00 0.00 0.00 44 1012.2
20260504170349 20 250 0.0 3.2 0.00 0.00 0.00 43 1028.9
20260504170203 20 202 8.0 12.9 0.00 0.00 0.00 45 1012.3
20260504160309 20 209 3.2 8.0 0.00 0.00 0.00 47 1029.6
20260504160202 19 258 0.0 11.3 0.00 0.00 0.00 45 1012.8
20260504150734 18 189 4.8 8.0 0.00 0.00 0.00 47 1030.0
20260504150703 18 206 3.2 11.3 0.00 0.00 0.00 46 1013.4
20260504150231 18 255 0.0 3.2 0.00 0.00 0.00 46 1029.9
20260504150204 18 232 1.6 11.3 0.00 0.00 0.00 48 1013.6
20260504141202 17 273 0.0 8.0 0.00 0.00 0.00 58 1013.6
20260504141200 17 274 0.0 0.0 0.00 0.00 0.00 60 1030.4
20260504140704 17 210 3.2 8.0 0.00 0.00 0.00 56 1013.8
20260504140657 17 261 0.0 4.8 0.00 0.00 0.00 57 1030.3
20260504140204 17 218 3.2 8.0 0.00 0.00 0.00 58 1013.7
20260504140152 17 204 3.2 4.8 0.00 0.00 0.00 58 1030.3
20260504130703 15 217 0.0 8.0 0.00 0.00 0.00 66 1014.2
20260504130621 15 212 0.0 4.8 0.00 0.00 0.00 66 1030.9
20260504130118 15 231 0.0 0.0 0.00 0.00 0.00 67 1030.9
20260504120204 11 352 0.0 0.0 0.00 0.00 0.00 69 1014.5
20260504110703 6 321 0.0 0.0 0.00 0.00 0.00 81 1014.6
20260504110508 6 321 0.0 0.0 0.00 0.00 0.00 81 1031.3
20260504110204 5 321 0.0 0.0 0.00 0.00 0.00 80 1014.5
20260504100425 2 329 0.0 0.0 0.00 0.00 0.00 89 1031.3
20260504100204 2 329 0.0 0.0 0.00 0.00 0.00 89 1014.7
20260504081818 2 328 0.0 0.0 0.00 0.00 0.00 88 1031.2
20260504081704 2 328 0.0 0.0 0.00 0.00 0.00 89 1014.8
20260504081315 2 328 0.0 0.0 0.00 0.00 0.00 89 1031.2
20260504081204 2 328 0.0 0.0 0.00 0.00 0.00 89 1014.6
20260504080811 2 328 0.0 0.0 0.00 0.00 0.00 89 1031.2
20260504080308 2 328 0.0 0.0 0.00 0.00 0.00 89 1031.2
20260504080203 2 328 0.0 0.0 0.00 0.00 0.00 89 1014.5
20260504070235 3 328 0.0 0.0 0.00 0.00 0.00 86 1031.2
20260504070203 3 328 0.0 0.0 0.00 0.00 0.00 86 1014.6